Temp
5 5 5 5 5 4 3 3 3 4 2 2 1 1 0 0 1 1 1 1 1 1 -0 -3 -3 -3 -3
5 5 5 4 3 3 2 2 2 1 1 1 1 0 0 1 0 -0 -0 -0 -0 -1 -1 -2 -2 -4 -4
4 4 4 3 2 2 1 2 1 1 0 0 -0 0 -0 -1 -1 -1 -1 -1 -1 -1 -1 -2 -2 -2 -4
3 3 3 2 2 1 0 0 -0 -0 -1 -1 -1 -1 -1 -1 -1 -1 -1 -1 -1 -1 -1 -1 -1 -3 -4
2 2 1 1 -0 0 -0 -1 -1 -1 -1 -1 -1 -1 -1 -1 -1 -1 -1 -1 -1 -2 -2 -2 -2 -3 -4
1 1 1 0 -0 -1 -1 -1 -2 -1 -2 -2 -2 -2 -1 -1 -1 -1 -1 -2 -2 -1 -1 -2 -2 -3 -2
1 0 -1 -1 -1 -2 -2 -2 -3 -3 -2 -2 -2 -2 -2 -1 -1 -1 -1 -1 -1 -1 -2 -2 -2 -2 -2
-0 -1 -2 -2 -2 -3 -3 -3 -3 -3 -3 -2 -2 -2 -2 -1 -1 -1 -1 -1 -2 -2 -2 -2 -2 -2 -2
-1 -2 -3 -3 -3 -4 -4 -4 -4 -3 -3 -2 -2 -1 -1 -1 -1 -2 -2 -3 -3 -3 -3 -2 -2 -2 -2
-3 -4 -4 -4 -5 -4 -4 -4 -4 -3 -3 -3 -2 -2 -2 -2 -2 -2 -3 -3 -3 -4 -3 -2 -2 -3 -3
-4 -4 -4 -5 -5 -5 -4 -4 -4 -4 -4 -4 -3 -3 -3 -2 -2 -2 -3 -3 -4 -3 -3 -3 -3 -4 -4
-4 -4 -5 -5 -5 -5 -4 -4 -4 -4 -4 -4 -4 -4 -4 -4 -2 -2 -3 -3 -4 -4 -4 -5 -5 -5 -5
-4 -5 -5 -5 -5 -5 -4 -4 -4 -4 -4 -5 -5 -5 -5 -5 -4 -3 -4 -3 -4 -4 -5 -5 -5 -5 -5
-4 -5 -5 -5 -5 -4 -4 -4 -4 -5 -6 -6 -6 -6 -5 -5 -6 -4 -5 -6 -4 -5 -6 -5 -5 -5 -5
-4 -5 -5 -5 -5 -5 -5 -5 -5 -4 -5 -7 -8 -7 -6 -6 -5 -5 -5 -6 -6 -6 -6 -5 -5 -5 -5
-5 -5 -5 -5 -5 -5 -6 -5 -5 -5 -5 -6 -7 -7 -7 -6 -6 -6 -6 -6 -6 -6 -7 -7 -4 -4 -5
-5 -5 -6 -6 -6 -6 -6 -6 -6 -6 -6 -7 -7 -8 -9 -9 -6 -7 -7 -7 -7 -7 -7 -7 -7 -5 -5
Height
1532 1533 1533 1534 1533 1534 1534 1534 1533 1533 1533 1533 1532 1532 1532 1531 1531 1531 1531 1530 1530 1529 1528 1528 1529 1529 1529
1528 1528 1529 1528 1529 1529 1529 1529 1529 1529 1529 1529 1528 1528 1528 1527 1526 1525 1525 1524 1524 1523 1523 1523 1522 1522 1522
1524 1524 1525 1525 1526 1526 1525 1526 1526 1525 1525 1524 1524 1524 1523 1522 1521 1520 1520 1520 1520 1519 1519 1519 1518 1517 1517
1521 1521 1522 1522 1522 1522 1522 1522 1522 1521 1520 1520 1519 1519 1518 1517 1517 1517 1517 1517 1516 1516 1516 1515 1514 1513 1513
1518 1518 1518 1519 1519 1518 1518 1518 1518 1517 1516 1515 1514 1514 1514 1514 1514 1514 1514 1514 1513 1512 1511 1510 1509 1508 1507
1515 1515 1515 1515 1515 1514 1514 1514 1514 1512 1512 1512 1511 1510 1510 1510 1510 1510 1510 1509 1508 1507 1506 1505 1504 1502 1501
1511 1511 1511 1510 1510 1510 1510 1510 1509 1508 1508 1508 1508 1507 1507 1507 1506 1505 1504 1504 1503 1503 1502 1501 1499 1497 1495
1507 1507 1507 1506 1507 1507 1507 1507 1506 1505 1505 1505 1505 1505 1504 1503 1502 1501 1500 1500 1501 1500 1498 1496 1493 1491 1489
1504 1503 1503 1503 1503 1503 1504 1504 1504 1503 1503 1503 1502 1501 1500 1499 1498 1498 1498 1498 1497 1496 1493 1490 1487 1485 1483
1500 1500 1500 1500 1500 1501 1501 1502 1502 1502 1500 1501 1499 1498 1497 1495 1495 1496 1495 1494 1493 1491 1488 1485 1482 1480 1477
1497 1497 1497 1497 1498 1498 1499 1499 1499 1499 1498 1496 1495 1495 1494 1493 1492 1492 1491 1490 1488 1485 1481 1479 1476 1474 1472
1494 1494 1494 1495 1495 1496 1496 1496 1496 1495 1494 1493 1491 1491 1490 1487 1485 1485 1484 1482 1480 1477 1475 1474 1471 1469 1466
1491 1491 1492 1492 1493 1492 1492 1492 1492 1491 1490 1489 1488 1487 1486 1484 1481 1479 1477 1476 1473 1471 1469 1466 1464 1463 1460
1489 1489 1489 1489 1489 1489 1488 1488 1488 1488 1486 1485 1484 1482 1481 1479 1477 1473 1473 1470 1468 1465 1461 1459 1457 1456 1454
1486 1486 1486 1486 1485 1485 1484 1484 1484 1483 1483 1482 1479 1477 1475 1474 1470 1468 1466 1463 1461 1458 1455 1451 1451 1448 1446
1482 1482 1482 1481 1481 1481 1480 1480 1479 1479 1478 1476 1474 1471 1468 1467 1465 1463 1461 1457 1455 1452 1449 1444 1441 1442 1438
1479 1478 1478 1477 1476 1476 1475 1474 1473 1473 1472 1470 1469 1466 1462 1459 1459 1455 1452 1451 1447 1444 1442 1439 1434 1432 1430
Wind_Speed
14 14 13 16 16 14 15 15 14 16 17 18 17 16 15 17 17 17 17 17 17 17 15 12 12 12 12
14 14 15 14 14 13 12 12 13 13 14 15 15 15 16 16 16 16 16 14 12 12 11 11 12 12 12
12 13 15 12 10 10 11 11 14 14 14 14 15 15 15 16 16 14 11 10 9 9 10 12 13 14 13
11 10 10 10 11 11 12 12 12 13 13 15 15 15 14 13 11 9 8 8 9 11 12 14 15 15 14
8 9 9 10 11 11 12 12 13 14 14 14 13 11 9 7 7 8 8 10 12 13 15 16 16 14 14
7 9 10 11 12 12 13 12 12 13 11 9 8 7 7 8 8 9 11 13 15 16 16 16 17 20 20
9 10 11 11 12 12 12 12 11 11 7 4 5 6 8 9 11 14 14 14 14 14 15 19 22 21 22
9 10 11 11 11 10 10 10 8 6 4 4 6 6 8 11 12 11 7 4 9 13 19 21 22 23 24
10 10 10 11 9 9 8 6 5 6 8 7 7 9 10 10 8 3 6 9 13 14 18 22 23 23 24
8 8 9 10 8 7 6 5 5 7 6 8 10 11 6 8 7 10 16 16 13 19 20 21 23 23 23
8 8 8 8 7 7 6 7 8 9 11 13 13 13 12 16 17 16 16 12 20 18 19 17 16 16 21
7 7 7 7 7 8 9 10 10 11 11 13 16 16 17 21 23 22 23 23 20 16 8 16 21 20 20
6 7 8 9 10 11 11 11 11 11 12 13 14 16 18 22 26 27 27 24 19 15 24 20 21 20 21
7 8 10 11 11 12 12 13 14 11 12 14 15 18 20 22 26 28 26 27 24 23 23 25 22 20 23
8 9 12 13 13 14 15 15 16 16 14 13 16 19 21 23 27 29 28 24 22 23 23 24 24 23 22
9 10 12 14 15 16 17 17 18 18 18 19 20 22 24 24 25 21 24 24 20 23 25 28 26 21 22
10 11 13 14 16 17 18 19 20 20 19 20 21 21 23 26 27 28 24 24 29 27 24 24 28 25 24
Wind_Direction
268 263 271 275 274 274 269 267 269 271 271 273 271 273 275 275 281 282 282 285 289 286 284 285 283 284 281
278 276 274 273 268 267 262 267 267 268 270 276 272 273 278 282 282 286 289 292 288 283 279 279 279 283 290
270 269 264 265 269 268 268 274 275 275 276 274 274 279 279 281 284 287 290 288 287 286 288 289 289 287 292
246 252 259 264 265 266 272 275 276 277 279 277 280 282 283 281 280 283 284 290 292 290 285 283 286 287 287
252 254 259 261 263 271 274 278 282 284 283 285 285 286 282 278 283 288 290 285 282 284 288 288 286 284 288
256 258 262 266 270 275 279 284 289 282 283 281 287 282 280 282 285 287 290 292 293 294 297 298 301 300 296
269 269 270 271 277 279 283 285 283 281 289 268 274 278 287 287 296 298 293 287 288 291 291 295 299 299 298
277 278 275 277 281 282 283 285 281 281 282 285 282 286 284 297 299 299 294 293 296 290 294 295 297 298 296
282 281 281 283 285 279 278 273 274 275 288 290 291 303 304 296 289 207 319 301 298 296 298 296 295 294 292
284 281 277 281 277 271 259 254 271 292 276 294 299 313 313 290 243 244 304 298 282 302 295 291 290 290 289
283 280 274 269 263 255 255 268 276 272 280 293 297 301 292 284 280 279 292 294 300 297 294 291 283 284 294
277 271 264 260 256 260 269 273 276 281 284 289 293 298 297 298 300 306 312 315 313 308 281 299 289 289 289
276 268 262 260 264 270 274 280 283 288 290 289 289 290 291 294 300 305 312 316 311 307 308 299 297 293 293
281 272 268 267 270 275 280 285 289 291 287 286 286 288 292 295 296 301 309 304 305 305 301 298 298 295 296
284 282 282 277 276 279 283 285 288 291 287 282 284 288 291 294 295 304 307 303 307 302 298 296 296 299 296
291 287 287 285 282 283 283 284 286 289 290 292 293 297 297 293 296 300 299 305 310 306 301 299 296 297 300
292 290 290 291 290 287 287 287 288 288 289 291 295 301 302 301 305 306 305 313 315 310 306 300 298 300 299